Погода в Казыме

Погода в Казыме : погода сейчас, прогноз погоды и архив. Всё, что Вы хотите узнать о погоде в Казыме!

Хотите узнать прогноз погоды в Казыме? Тогда Вам сюда: Погода в Казыме

Поиск расширенной информации на нашем сайте:

Другие новости

Новости СМИ2

Главная страница сайта

Новости сайта

03.07.2017

Напоминаем, что на нашем специализированном сайте Метеоцентр.Азия вы можете получить высокодетализированные автоматические прогнозы погоды по пунктам России, СНГ и мира в авиационном формате (включающие направление и скорость ветра, видимость, явления погоды, количество и форму облачности, нижнюю и верхнюю границу облачности).

Рекомендуем: Александрия витязево официальный сайт: популярные сайты aleksandriya.net.

Погода в Казыме - сегодня

Время (UTC), дата Ветер
(°,м/с) 
Видим.   Явления Облачность Т
(°С)
Тd
(°С)
f(%) Тe
(°С)
Pmin
(гПа)
dP
(гПа)
Po
(мм)
O2
(г/м3)
Тmin Tmax R s Состояние
почвы
00 20.07.18 050 (СВ) 10 км    8/8 600 м 
[Sc]
+12.9 +6.3 64 +13  1025.4  1.6  761  292           
06 20.07.18 040 (СВ) 10 км    3/1 600 м верхняя 
[Cu hum|Ci sp]
+15.7 +2 40 +16  1026.1  0.1  762  290           
09 20.07.18 060 (СВ) 10 км    1/0 верхняя 
[Ci sp]
+16.8 +1.6 36 +17  1026.2  0.1  762  289           
12 20.07.18 050 (СВ) 10 км    ясно 
+17.5 -0.3 30 +18  1025.9  -0.3  762  288           
15 20.07.18 070 (В) 10 км    ясно 
+16.1 +3.3 42 +17  1025.8  -0.2  762  289    +15.2       
18 20.07.18 030 (СВ) 10 км    3/0 верхняя 
[Ci fib]
+7.7 +4.5 80 +9  1026.6  0.5  762  298           
21 20.07.18 тихо ()   10 км    ясно 
+7.1 +4.6 84 +7  1027.1  0.5  762  299           
00 21.07.18 030 (СВ) 10 км    ясно 
+9.8 +5.9 77 +11  1028  763  296           
03 21.07.18 040 (СВ) 10 км    ясно 
+14.8 +4.9 51 +16  1028  0.2  763  291  +4.9         
06 21.07.18 050 (СВ) 10 км    ясно 
+17.1 +1.1 34 +18  1027.6  -0.3  763  289           
09 21.07.18 040 (СВ) 10 км    1/0 верхняя 
[Ci fib]
+19.3 +0.1 27 +20  1026.4  -1.1  762  287           
12 21.07.18 040 (СВ) 10 км    ясно 
+19.9 +0.1 26 +21  1025.8  -0.6  762  286           
18 21.07.18 тихо ()   10 км    ясно 
+9.2 +5.1 75 +9  1025.2  761  296           
21 21.07.18 130 (ЮВ) 10 км    10/10 600 м 
[Sc]
+9.5 +7.3 86 +11  1025.4  0.2  761  295           
00 22.07.18 тихо ()   10 км    3/3 600 м 
[Sc]
+11.2 +8.7 85 +11  1025.4  0.1  761  293           
03 22.07.18 270 (З) 10 км    ясно 
+18.6 +5.5 42 +20  1024.7  -0.4  761  286  +7.2         
06 22.07.18 310 (СЗ) 10 км    3/0 средняя 
[Ac lent]
+22.8 +7.3 37 +23  1023.5  -1  760  282           
09 22.07.18 010 (С) 10 км    3/3 600 м 
[Cu hum]
+25.9 +9.4 35 +26  1021.5  -2  759  278           
12 22.07.18 040 (СВ) 10 км    8/8 600 м 
[Cu hum]
+26.7 +9.6 34 +27  1019.8  -1.6  757  276           
18 22.07.18 280 (З) 10 км    ясно 
+18.1 +13 72 +25  1018.6  -0.2  756  283           
21 22.07.18 280 (З) 10 км    ясно 
+16 +12 77 +21  1018.6  -0.2  756  286           
00 23.07.18 300 (СЗ) 10 км    ясно 
+16.3 +13.3 82 +23  1018.2  -0.3  756  285           
03 23.07.18 300 (СЗ) 10 км    ясно 
+23.1 +13.5 55 +29  1017.3  -0.7  755  278  +14.9         
06 23.07.18 360 (С) 10 км    3/3 600 м 
[Cu hum]
+28 +10.9 34 +30  1016.2  -0.9  755  274           
09 23.07.18 360 (С) 10 км    3/1 600 м верхняя 
[Cu med, cong|Ci sp]
+29.2 +6.7 24 +29  1015.6  -0.6  754  274           
Время (UTC), дата Ветер
(°,м/с) 
Видим.   Явления Облачность Т
(°С)
Тd
(°С)
f(%) Тe
(°С)
Pmin
(гПа)
dP
(гПа)
Po
(мм)
O2
(г/м3)
Тmin Tmax R s Состояние
почвы

Для получения пояснительной информации подведите курсор к названию столбца.

ПОГОДА в Казыме - архив

Всё, что Вы хотите узнать о погоде в Казыме - удобно и подробно!

Выберите нужную дату (начиная с 1 января 2015* года) и нажмите кнопку "Найти".
Будут отображены архивные сводки погоды по пункту Казым, начиная с указанной даты.


Отображать данные в формате CSV (для использования в таблицах Excel)


Внимание! Наш архив погоды предназначен исключительно для личного некоммерческого использования в познавательных целях. Если Вам необходимы официальные справки о состоянии погоды (для производственных, юридических, коммерческих и т.п. целей), обращайтесь в органы Росгидромета.

*Примечание: данная дата относится к архиву по метеостанциям СССР (Россия, СНГ, Балтия).
Архив по метеостанциям Зарубежной Европы и Азии (кроме Китая) хранится 10 дней, по другим регионам земного шара (Китай, Африка, Америка, Австралия, Океания) - 1 день.

Казым - район местоположения метеостанции


Название, широта, долгота, высота метеостанции:
Казым 63.7°ш. 67.2°д. 27 м над ур. моря [Российская Федерация]

Дополнительная информация

В oтличие oт бoльшинства пoгoдных сайтoв мы публикуем пoдрoбную метеoинфoрмацию в детальнoм прoфессиoнальнoм фoрмате.

Характеристики температуры и влажнoсти вoздуха измеряются на высoте 2 м в тени вдали oт зданий и деревьев.
Скoрoсть ветра измеряется на высoте 10 м (на урoвне рoста челoвека скoрoсть ветра ниже в 1.5-2 раза). Если метеoстанция нахoдится в гoрoде или в лесу, тo скoрoсть ветра занижена на 2-4 м/с пo сравнению с oткрытым местoм. Скoрoсть ветра над акватoриями крупных рек и oзёр, а также на вершинах хoлмoв на 2-5 м/с выше, чем в oбычных услoвиях.
Атмoсфернoе давление в разных тoчках местнoсти мoжет значительнo oтличаться oт давления на метеoстанции, в зависимoсти oт услoвий рельефа (при пoдъёме на 10 м давление пoнижается примернo на 1 мм рт.ст.).